www.pogodaiklimat.ru

Погода и климат >> Архив погоды >> Россия >> Амурская область >> Усть-Нюкжа


ПОГОДА в Усть-Нюкже

  • Прогноз погоды в Усть-Нюкже
  • Монитор погоды в Усть-Нюкже

АРХИВ ПОГОДЫ в Усть-Нюкже

Время (UTC), дата Ветер
(напр.,м/с)
 
Видим.   Явления Облачность Т
(С)
Тd
(С)
f
(%)
Тe
(С)
Тes
(С)
Комфортность P
(гПа)
Po
(гПа)
Тmin
(С)
Tmax
(С)
R
(мм)
R24
(мм)
S
(см)
03 10.09 ЮВ 1 50 км 8/0
[Ac trans]
+14.0 +2.2 45 +15 +19 1019.6 967.8
06 10.09 ЮЗ 1 50 км 3/3 1000 м
[Cu hum]
+18.1 -0.2 29 +19 +24 1016.1 965.3
09 10.09 Ю 1 50 км 3/3 1000 м
[Cu hum]
+18.7 -2.9 23 +20 +20 1014.6 963.9
12 10.09 В 1 50 км ясно +8.1 +2.5 68 +8 +8 1017.1 964.5 +19.1
15 10.09 В 1 50 км 3/0
[Ac trans]
+5.6 +1.2 73 +5 +5 1017.5 964.3
18 10.09 штиль 0 50 км 3/0
[Ac trans]
+2.4 +1.1 91 +1 +1 1018.0 964.2
21 10.09 штиль 0 50 км туман местами 3/0
[Ci fib]
+0.6 -0.1 95 -1 -1 1017.2 963.1
00 11.09 штиль 0 50 км 5/0
[Ac trans Ci fib]
+5.5 +2.5 81 +5 +7 1015.1 962.0 +0.6
03 11.09 В 1 20 км слаб. ливневой дождь 10/10 600 м
[Cb cap]
+7.7 +6.2 90 +7 +7 1013.5 960.9
06 11.09 СВ 2 50 км {ливн. осадки} 4/3 1000 м
[Sc Ac trans]
+13.4 +8.0 70 +13 +17 1011.0 959.7
09 11.09 С 1 50 км 6/5 600 м
[Cb cap Ac trans]
+14.1 +6.7 61 +15 +15 1010.2 959.0
12 11.09 штиль 0 50 км в посл. час ливневой дождь 10/10 600 м
[Cb cap]
+9.8 +8.6 92 +9 +9 1012.7 960.6 +15.2 3
15 11.09 штиль 0 50 км туман местами {ливн. осадки} 4/0
[Ac trans]
+7.7 +7.1 96 +7 +7 1013.3 960.8
18 11.09 В 1 50 км туман ясно +6.8 +6.2 96 +6 +6 1011.7 959.2
21 11.09 штиль 0 50 км туман 8/0
[Ac trans]
+7.1 +6.4 95 +6 +6 1010.2 957.7
00 12.09 ЮЗ 1 20 км слаб. ливневой дождь {туман} 9/8 600 м
[Cb cap Ci fib]
+7.9 +7.1 95 +7 +7 1006.6 954.5 +5.9 0.0
03 12.09 ЮЗ 1 50 км {ливн. осадки} 9/5 600 м
[Cb cap Cs]
+15.6 +7.9 60 +16 +20 1000.2 949.8
06 12.09 Ю 2 50 км {ливн. осадки} 8/3 600 м
[Cb cap Cs]
+20.9 +7.1 41 +23 +26 комфорт 994.4 945.2
09 12.09 Ю 6-10
{12}
50 км 10/10 600 м
[Cb cap]
+19.8 +9.7 52 +21 +21 комфорт 992.9 943.5
12 12.09 ЮЗ 3
{10}
20 км слаб. ливневой дождь 10/10 600 м
[Cb cap]
+10.3 +7.9 85 +8 +8 999.1 947.9 +21.3 5
15 12.09 штиль 0 20 км слаб. ливневой дождь 10/10 600 м
[Cb cap]
+8.3 +7.5 95 +7 +7 1001.7 950.0
18 12.09 штиль 0 20 км слаб. ливневой дождь 10/10 600 м
[Cb cap]
+7.9 +7.3 96 +7 +7 1001.3 949.5
21 12.09 штиль 0 20 км слаб. ливневой дождь 10/10 600 м
[Cb cap]
+7.7 +6.9 95 +7 +7 1001.5 949.7
00 13.09 СЗ 2 50 км {ливн. осадки} 10/10 600 м
[Cb cap]
+8.5 +7.0 90 +7 +7 1003.0 951.2 +7.5 8
03 13.09 СЗ 3
{10}
50 км 9/8 600 м
[Cb cap Ci fib]
+12.2 -0.4 42 +11 +12 1004.0 952.7
06 13.09 С 1
{10}
50 км 8/8 600 м
[Cb cap]
+13.3 -2.7 33 +14 +15 1003.8 952.7
09 13.09 штиль 0 50 км 6/6 600 м
[Cb cap]
+12.5 -3.4 33 +13 +13 1004.8 953.5
12 13.09 штиль 0 50 км 5/0
[Ac trans]
+5.3 -0.1 68 +5 +5 1008.1 955.4 +14.1
15 13.09 С 1 50 км 3/0
[Ac trans]
+3.7 -1.7 68 +3 +3 1009.5 956.4
18 13.09 В 1 50 км 6/0
[Ac trans]
+1.9 -2.4 73 0 0 1010.2 956.7
21 13.09 штиль 0 50 км 8/3 600 м
[Cb cap Ac trans]
-1.4 -3.0 89 -3 -3 1010.2 956.1
00 14.09 штиль 0 50 км 8/4 600 м
[Cb cap Ac trans]
+2.2 -0.2 84 +1 +2 1009.1 955.7 -1.6
03 14.09 СВ 1 50 км 8/3 600 м
[Sc Ac trans]
+9.4 -0.5 50 +9 +13 1005.4 953.5
06 14.09 Ю 4 50 км 6/3 600 м
[Cb cap Ac trans]
+13.4 +0.4 41 +12 +14 1001.8 950.8
09 14.09 Ю 4
{10}
50 км 6/6 600 м
[Cb cap]
+13.0 -2.5 34 +12 +12 1000.3 949.4
12 14.09 штиль 0 50 км 3/0
[Ci fib]
+5.4 -0.2 67 +5 +5 1001.2 948.8 +13.9
15 14.09 СВ 1 50 км 4/0
[Ac trans]
+3.2 -0.3 78 +2 +2 1000.7 947.9
18 14.09 Ю 1 50 км 8/0
[Ac trans]
+5.7 +1.8 76 +5 +5 998.9 946.8
21 14.09 штиль 0 50 км 9/9 600 м
[Cb cap]
+3.6 +2.0 89 +3 +3 998.5 945.9
00 15.09 ЮЗ 1
{11}
20 км ливневой дождь 10/10 600 м
[Cb cap]
+0.9 0.0 94 -1 -1 1001.4 948.2 +0.9 2
03 15.09 З 1 20 км в посл. час ливневой дождь 10/10 600 м
[Cb cap]
+1.7 +0.1 89 -0 -0 1003.3 950.1
06 15.09 СЗ 3 20 км {ливн. осадки} 10/8 600 м
[Cb cap Ci fib]
+4.0 -2.6 62 +1 +1 1004.0 951.2
09 15.09 С 1 50 км {ливн. осадки} 5/3 1000 м
[Cu hum Ac cast Ci fib]
+5.7 -6.9 40 +5 +6 1005.3 952.7
12 15.09 СЗ 2 50 км 6/0
[Ac trans]
+3.1 -7.7 45 +1 +1 1007.7 954.5 +6.7 3
15 15.09 С 1 50 км 3/0
[Ac trans]
-0.3 -5.1 70 -2 -2 1008.9 955.0
18 15.09 В 2 50 км 3/0
[Ac trans]
-2.6 -5.7 79 -6 -6 1010.3 955.9
21 15.09 штиль 0 50 км ясно -4.3 -5.8 89 -5 -5 1011.7 956.9
00 16.09 Ю 1 50 км 9/9 600 м
[Sc]
-1.4 -3.8 84 -4 -3 1011.6 957.4 -4.7
03 16.09 З 1 50 км 9/9 600 м
[Cb cap]
+4.5 -3.8 55 +4 +5 1010.0 957.0
06 16.09 З 1 50 км 8/8 600 м
[Cb cap]
+7.2 -6.2 38 +7 +8 1009.3 956.8
09 16.09 Ю 1 50 км 8/8 600 м
[Cb cap Ac trans]
+6.3 -4.8 45 +6 +6 1010.4 957.7
12 16.09 СВ 1 50 км 9/9 600 м
[Cb cap]
+1.4 -3.1 72 -0 -0 1012.9 959.2 +7.6
15 16.09 С 1 50 км 5/0
[Ac trans]
-1.0 -2.9 87 -3 -3 1014.4 960.1
18 16.09 штиль 0 50 км 5/0
[Ac trans]
-2.1 -2.9 94 -3 -3 1015.7 961.1
21 16.09 В 1 50 км 3/0
[Ac trans]
-3.1 -3.5 97 -6 -6 1017.0 962.1
00 17.09 штиль 0 50 км 8/0
[Ac trans]
+0.5 -0.8 91 -1 +1 1017.7 963.5 -3.3

 

Местоположение метеостанции Усть-Нюкжа (Амурская область, Россия): широта 56.58 долгота 121.50 высота над уровнем моря 441 м.

В архиве по умолчанию представлена погода в Усть-Нюкже за последнюю неделю. Архивные данные за месяц целиком и за предыдущие месяцы, начиная с января 2011 года, Вы можете получить, выбрав интересующий диапазон дат из раскрывающегося списка и нажав кнопку "Ввод!".


*Определитесь, кто Вы:
робот инопланетянин человек

Внимание! Время в таблицах - всемирное. Для получения местного времени необходимо прибавить поправку, которая равна 9 ч.

Смотрите также архив погоды в соседних городах и на ближайших метеорологических станциях:

Погода в Лопче (Амурская область, Россия) (117 км)
Погода в Средней Олекме (Забайкальский край, Россия) (142 км)
Погода в Удокане (Забайкальский край, Россия) (196 км)
Погода в Чаре (Забайкальский край, Россия) (204 км)
Погода в Нерюнгри (Якутия, Россия) (207 км)
Погода в Суон-Тите (Якутия, Россия) (212 км)
Погода в Нагорном (Якутия, Россия) (215 км)
Погода в Большой Лепринде (Забайкальский край, Россия) (239 км)
Погода в Тынде (Амурская область, Россия) (248 км)
Погода в Тупике (Забайкальский край, Россия) (259 км)

Пояснения к столбцам:

Ветер - указаны скорость ветра в м/с - средняя за 10 мин, порывы в срок и между сроками (в фигурных скобках) и направление, откуда дует ветер: С - северный, СВ - северо-восточный, В - восточный, ЮВ - юго-восточный, Ю - южный, ЮЗ - юго-западный, З - западный, СЗ - северо-западный.
Видимость - горизонтальная дальность видимости в метрах или километрах. При видимости от 1 до 10 км при отсутствии осадков обычно наблюдается дымка, при ухудшении видимости до 1 км и менее - туман. В сухую погоду видимость может ухудшаться дымом, пылью или мглою.
Явления - указаны атмосферные явления, наблюдавшиеся в срок или в последний час перед сроком; фигурными скобками обозначены явления, наблюдавшиеся между сроками (за 1-3 часа до срока); квадратными скобками обозначены град или гололедные отложения с указанием их диаметра в мм.
Облачность - указаны через наклонную черту общая и нижняя облачность в баллах и высота нижней границы облаков в метрах; квадратными скобками обозначены формы облаков: Ci - перистые, Cs - перисто-слоистые, Cc - перисто-кучевые, Ac - высококучевые, As - высокослоистые, Sc - слоисто-кучевые, Ns - слоисто-дождевые, Cu - кучевые, Cb - кучево-дождевые. Подробнее классификацию облаков см. в Атласе облаков (PDF).
T - Температура воздуха - температура, измеренная на высоте 2 м над землей.
Td - Температура точки росы - температура, при понижении до которой содержащийся в воздухе водяной пар достигнет насыщения.
f - Относительная влажность воздуха - влажноcть воздуха, измеренная на высоте 2 м над землей.
Te - Эффективная температура - температура, которую ощущает одетый по сезону человек в тени. Характеристика душности погоды. При расчете учитывается влияние влажности воздуха и скорости ветра на теплоощущения человека.
Tes - Эффективная температура на солнце - температура, которую ощущает человек, с поправкой на солнечный нагрев. Характеристика знойности погоды. Зависит от высоты солнца над горизонтом, облачности и скорости ветра. Ночью, в пасмурную погоду, а также при ветре 12 м/с и более поправка равна нулю.
P - Атмосферное давление - приведенное к уровню моря атмосферное давление.
Po - Атмосферное давление - измеренное на уровне метеостанции атмосферное давление.
Tmin - Минимальная температура - минимум температуры воздуха на высоте 2 м над землей.
Tmax - Максимальная температура - максимум температуры воздуха на высоте 2 м над землей.
R - Количество осадков - Количество выпавших осадков за период времени, мм. При наведении курсора мыши на число - период времени, за который выпало указанное количество осадков.
R24 - Количество осадков - Количество выпавших осадков за 24 часа, мм.
S - Снежный покров - Высота снежного покрова, см. При наведении курсора мыши на число - состояние снежного покрова и степень покрытия местности в баллах.